This is the latest recevied weather packets stored in our database for station/object HB9FHL-13. If no packets are shown the sender has not sent any weather packets the latest 10 day(s).
| Time | Temp. | Humidity | Pressure | Rain* | Wind** | Luminosity | Snow |
|---|---|---|---|---|---|---|---|
| 1788411686 | 17.78° C | - | 1023.2 hPa | 0 mm | - | - | - |
| 1788411386 | 18.33° C | - | 1022.8 hPa | 0 mm | - | - | - |
| 1788411086 | 17.78° C | - | 1025.4 hPa | 0 mm | - | - | - |
| 1788410785 | 18.89° C | - | 1026.1 hPa | 0 mm | - | - | - |
| 1788410485 | 17.78° C | - | 1022 hPa | 0 mm | - | - | - |
| 1788410184 | 18.89° C | - | 1027.5 hPa | 0 mm | - | - | - |
| 1788409884 | 18.33° C | - | 1021.5 hPa | 0 mm | - | - | - |
| 1788409583 | 18.33° C | - | 1025.1 hPa | 0 mm | - | - | - |
| 1788408982 | 18.89° C | - | 1025.2 hPa | 0 mm | - | - | - |
| 1788408682 | 18.33° C | - | 1027.1 hPa | 0 mm | - | - | - |
| 1788408381 | 18.89° C | - | 1027.2 hPa | 0 mm | - | - | - |
| 1788408081 | 18.89° C | - | 1023.5 hPa | 0 mm | - | - | - |
| 1788407780 | 18.33° C | - | 1026 hPa | 0 mm | - | - | - |
| 1788407480 | 18.89° C | - | 1026.1 hPa | 0 mm | - | - | - |
| 1788407178 | 18.33° C | - | 1027 hPa | 0 mm | - | - | - |
| 1788406878 | 19.44° C | - | 1024.3 hPa | 0 mm | - | - | - |
| 1788406577 | 18.89° C | - | 1025.9 hPa | 0 mm | - | - | - |
| 1788406277 | 18.89° C | - | 1026.4 hPa | 0 mm | - | - | - |
| 1788405975 | 18.33° C | - | 1023.4 hPa | 0 mm | - | - | - |
| 1788405676 | 18.89° C | - | 1026.2 hPa | 0 mm | - | - | - |
| 1788405374 | 18.89° C | - | 1027.1 hPa | 0 mm | - | - | - |
| 1788405074 | 18.89° C | - | 1026.4 hPa | 0 mm | - | - | - |
| 1788404773 | 19.44° C | - | 1023.4 hPa | 0 mm | - | - | - |
| 1788404473 | 18.89° C | - | 1026.2 hPa | 0 mm | - | - | - |
| 1788404172 | 18.89° C | - | 1026.3 hPa | 0 mm | - | - | - |
* Rain since midnight (hover to see other rain measurements)
** Current wind speed in m/s (hover to see current wind gust speed)